Location: Basin
(44.3800°N, 108.0380°W)
Time: 17:40:10
(UTC-06:00)

N. Korean satellite - Visible Passes

Search period start: 30 September 2020 00:00
Search period end: 10 October 2020 00:00
Orbit: 455 x 503 km, 97.2° (Epoch: 30 September)

Date Brightness Start Highest point End Pass type
(mag) Time Alt. Az. Time Alt. Az. Time Alt. Az.
30 Sep 7.5 06:35:05 10° NNE 06:38:39 55° E 06:42:06 10° S visible
01 Oct 9.1 06:09:27 10° NE 06:12:30 25° E 06:15:29 10° SSE visible
02 Oct 10.0 05:44:34 10° ENE 05:46:15 13° E 05:47:55 10° ESE visible
04 Oct 8.2 06:24:22 10° NNE 06:27:44 39° E 06:31:03 10° SSE visible
05 Oct 9.6 05:58:56 10° NE 06:01:32 19° E 06:04:06 10° SE visible
07 Oct 7.1 06:39:23 10° NNE 06:42:54 63° E 06:46:21 10° S visible
08 Oct 8.8 06:13:38 10° NE 06:16:44 28° E 06:19:47 10° SSE visible
09 Oct 9.9 05:48:32 10° ENE 05:50:28 14° E 05:52:24 10° SE visible
